Regional Weather Roundup
Issued by NWS Goodland, KS

Home | Current Version | Previous Version | Graphics & Text | Print | Product List | Glossary On
Versions: 1 2 3 4 5 6 7 8 9 10 11 12 13 14 15 16 17 18 19 20 21 22 23 24 25 26 27 28 29 30 31 32 33 34 35 36 37 38 39 40 41 42 43 44 45 46 47 48 49 50
000
ASUS43 KGLD 251108
RWRGLD

GOODLAND FORECAST AREA HOURLY WEATHER ROUNDUP
NATIONAL WEATHER SERVICE GOODLAND KS
500 AM MDT TUE APR 25 2017

...OFFICIAL OBSERVATIONS...

CITY           SKY/WX    TMP DP  RH WIND       PRES   REMARKS
GOODLAND KS      N/A    N/A N/A N/A MISG      29.52R
HILL CITY KS   CLOUDY    51  42  71 NE17      29.46R
IMPERIAL NEB   LGT RAIN  46  43  89 NW10      29.57S
MCCOOK NEB     CLOUDY    48  44  86 VRB5G17   29.50R
AKRON CO       RAIN      42  39  89 NW10      29.59R
BURLINGTON CO  NOT AVBL
LIMON CO       CLOUDY    41  39  93 N17       29.58F
$$

...UNOFFICIAL OBSERVATIONS...

CITY           SKY/WX    TMP DP  RH WIND       PRES   REMARKS
LENORA KS        N/A     47  32  56 MISG        N/A
NORTON KS      CLOUDY    48  39  71 NE16      29.45F
SHARON SPRINGS   N/A     46  43  89 NW16G23     N/A
TRENTON NEB      N/A     46  32  58 NW10        N/A
YUMA CO        CLOUDY    43  41  93 NW12      29.58F
$$




USA.gov is the U.S. government's official web portal to all federal, state and local government web resources and services.